Regional Weather Roundup
Issued by NWS New Orleans/Baton Rouge, LA

Home | Current Version | Previous Version | Text Only | Print | Product List | Glossary On
Versions: 1 2 3 4 5 6 7 8 9 10 11 12 13 14 15 16 17 18 19 20 21 22 23 24 25 26 27 28 29 30 31 32 33 34 35 36 37 38 39 40 41 42 43 44 45 46 47 48 49 50
684
ASUS44 KLIX 221713
RWRLIX
NEW ORLEANS REGIONAL WEATHER ROUNDUP
NATIONAL WEATHER SERVICE NEW ORLEANS LA
1200 PM CDT SAT JUL 22 2017

NOTE: "FAIR" INDICATES FEW OR NO CLOUDS BELOW 12,000 FEET WITH NO
      SIGNIFICANT WEATHER AND/OR OBSTRUCTIONS TO VISIBILITY.
      SKY/WX - SKY CONDITION AND SIGNIFICANT WEATHER.
      TMP - AIR TEMPERATURE.     DP    - DEWPOINT TEMPERATURE.
      RH  - RELATIVE HUMIDITY.   PRES  - PRESSURE.
      HI  - HEAT INDEX.          WCI   - WIND CHILL INDEX.

*  THESE STATIONS ARE NOT NWS OR FAA STATIONS AND ARE NOT UNDER
   NWS QUALITY CONTROL.

LAZ038-040-048-061>063-065>067-069-221800-
SOUTHEAST LOUISIANA

CITY           SKY/WX    TMP DP  RH WIND       PRES   REMARKS
N.O. INTL ARPT PTSUNNY   90  74  59 VRB5      30.01F HX  99
N.O. LAKEFRONT MOSUNNY   88  75  65 NE8       30.03F HX  97
N.O. DOWNTOWN*   N/A     91  74  57 CALM        N/A  HX 100
RESERVE*       PTSUNNY   89  75  64 W7        30.01F HX  99
SLIDELL        SUNNY     88  73  61 VRB3      30.02F HX  95
BATON ROUGE    PTSUNNY   84  72  67 N9        30.00F
BOOTHVILLE     NOT AVBL
BELLE CHASSE   PTSUNNY   90  77  65 VRB3      30.02F HX 103
BOGALUSA*      PTSUNNY   89  73  60 CALM      30.03F HX  96
GALLIANO*      MOSUNNY   89  73  60 S6        30.02F HX  97
NEW ROADS*       N/A     88  74  62 CALM      30.01F HX  96
GONZALES*        N/A     85  75  72 S3        30.01S THUNDER
HAMMOND*       CLOUDY    84  72  65 CALM      30.01F
HOUMA*         CLOUDY    84  77  79 S6        30.02F
PORT FOURCHON* CLOUDY    84  77  79 W7        30.03F

$$

MSZ070-080>082-221800-
SOUTHERN MISSISSIPPI

CITY           SKY/WX    TMP DP  RH WIND       PRES   REMARKS
MCCOMB         MOSUNNY   88  72  58 W6        30.03F
GULFPORT       PTSUNNY   84  77  79 SE10      30.02S THUNDER
BILOXI         MOSUNNY   89  77  69 S10       30.02S HX 101
PASCAGOULA     PTSUNNY   91  73  55 SE5       30.02F HX  99

$$

COASTAL OBSERVATIONS
LAKE AND NEARSHORE STATIONS

STATION/POSITION TIME  TEMP    WIND        PRES    WAVE
                       AIR SEA DIR/SP/G            HT/PER
                 (UTC) (F)     (DEG/KT/KT) (MB)    (FT/S)
PASCAGOULA       1648   88     200/  7/  9 1016.5
WAVELAND YACHT   1642   84 88  170/  6/  8 1016.8
GRAND ISLE       1648   85 88  140/  6/  7 1017.2
SOUTHWEST PASS   1648   85     190/  2/  4   N/A
NEW CANAL        1648   84 87   40/  7/  8 1016.6
SHELL BEACH      1642   83 90   10/  5/  6 1017.1

OFFSHORE STATIONS

STATION/POSITION TIME  TEMP    WIND        PRES    WAVE
                       AIR SEA DIR/SP/G            HT/PER
                 (UTC) (F)     (DEG/KT/KT) (MB)    (FT/S)
64 S DAUPHIN ISL 1650   82 85  170/ 10/ 12 1017.5    1

$$





USA.gov is the U.S. government's official web portal to all federal, state and local government web resources and services.